Probability
3 6 52 58 65 68 65 81 71 71 74 68 68 71 74 81 84 68 71 71 71 71 61 71 65 61 65 68 61 61 58 58 55 55 61 65 68 68 71 71 61 39 68
6 16 58 58 74 71 74 74 74 81 74 71 68 71 77 74 74 71 71 71 71 77 61 58 71 71 61 65 61 61 58 55 58 55 61 61 65 68 58 61 48 45 58
13 26 48 65 65 77 74 74 74 81 71 71 71 74 71 68 68 74 71 71 77 74 65 65 55 58 58 55 61 61 58 61 58 52 55 48 52 55 52 55 55 52 55
16 23 39 65 68 74 74 77 77 74 74 68 68 71 71 68 71 65 68 77 81 74 68 61 61 45 42 52 55 61 61 58 58 48 32 35 35 52 48 48 55 48 42
13 19 39 71 68 68 71 74 77 71 71 71 65 65 68 65 58 68 71 71 74 61 61 55 52 45 52 52 55 65 65 65 52 29 19 23 32 52 48 48 52 45 48
10 16 42 71 58 65 71 77 74 68 61 65 71 71 68 68 68 74 74 74 81 58 58 61 58 42 48 48 58 58 65 58 35 13 16 16 26 52 55 48 48 42 48
13 19 39 65 65 61 71 71 74 68 71 68 65 61 65 68 61 71 68 65 71 68 65 58 52 55 39 52 52 55 48 35 13 13 16 13 23 52 55 48 48 52 45
16 19 29 58 58 65 65 68 71 68 68 58 55 55 65 68 68 58 58 68 71 61 52 55 45 42 45 55 55 52 48 32 6 0 10 16 29 45 48 45 48 39 45
19 19 19 35 55 58 68 71 68 71 68 61 55 55 58 65 55 55 65 65 58 52 45 35 32 29 35 42 42 45 45 42 10 6 0 16 35 45 52 52 48 42 42
13 10 16 23 29 32 32 58 58 65 61 58 58 58 58 58 58 58 65 58 55 45 39 39 42 32 35 35 48 52 48 39 13 6 3 19 45 48 55 52 48 45 42
10 13 10 16 19 19 23 45 45 58 58 52 48 45 52 35 35 45 48 48 52 45 39 42 39 39 32 35 42 52 32 16 6 6 10 29 55 45 48 52 55 48 48
6 6 6 10 13 13 19 19 26 29 29 23 19 23 10 10 13 29 35 42 45 45 35 45 55 48 32 23 19 23 19 13 6 3 10 39 48 52 55 58 58 55 39
0 6 3 6 10 10 10 13 13 10 6 6 16 10 6 6 3 10 3 13 16 26 26 29 23 19 13 6 10 13 13 6 6 6 6 39 65 52 58 48 52 58 39
0 3 3 3 3 3 6 3 6 3 3 6 10 6 3 6 0 0 0 0 0 0 3 0 0 6 6 3 3 3 3 3 6 6 3 35 65 55 55 45 39 48 45
0 3 3 3 0 0 0 3 6 6 6 6 3 3 3 3 3 0 0 0 0 3 0 0 0 0 0 3 6 6 3 0 3 0 3 26 48 52 55 48 39 35 35
3 3 3 6 0 0 0 0 6 6 6 6 3 3 6 6 3 0 0 3 3 3 3 0 0 0 0 3 3 10 10 10 6 3 3 0 39 55 55 52 48 39 29
3 3 3 6 3 3 3 3 6 3 6 3 3 3 3 3 3 3 3 6 10 6 6 6 6 6 6 6 6 6 6 6 6 3 3 0 13 35 61 58 52 52 52
0 0 0 3 3 3 3 3 6 3 3 3 3 3 6 6 6 3 3 6 10 10 6 3 3 6 6 6 6 6 6 6 6 3 3 3 3 10 29 55 48 55 45
0 0 0 3 3 3 3 3 3 3 6 3 3 3 10 10 10 3 10 6 6 6 6 10 10 6 6 6 6 10 6 6 3 3 3 3 3 13 16 23 52 58 58
3 0 0 3 3 3 6 6 6 10 10 6 6 6 6 10 10 6 6 6 3 6 6 10 10 10 10 10 10 10 10 10 10 6 6 3 3 3 10 10 19 29 55
0 0 0 0 0 0 3 6 6 6 6 10 6 6 6 6 13 10 13 13 6 6 6 6 10 13 13 10 13 3 3 3 6 10 6 6 10 10 6 3 13 13 16
3 3 0 0 0 3 6 6 6 6 6 3 3 6 6 6 10 13 10 6 3 3 6 6 6 3 6 6 6 6 3 0 3 3 3 6 10 10 10 6 3 10 10
3 3 3 3 3 6 6 6 10 10 6 6 3 3 6 10 10 13 10 10 6 3 3 3 6 3 3 6 6 0 0 6 0 3 3 6 13 13 16 13 13 13 10
3 3 3 3 3 6 6 6 10 6 6 6 6 6 6 6 13 13 13 10 6 3 10 10 3 6 6 10 10 3 6 6 10 6 6 6 6 16 16 16 23 23 19
6 3 3 3 3 3 3 6 3 3 3 3 3 6 10 3 6 13 10 10 10 6 10 10 3 0 3 10 16 13 10 6 6 10 13 10 3 6 10 13 13 23 19
6 6 6 3 3 3 3 3 6 6 6 6 0 0 0 0 3 10 6 6 6 6 3 3 6 6 3 10 16 16 19 19 13 10 10 10 10 13 10 13 13 13 10
Height
5858 5857 5858 5858 5858 5859 5860 5862 5864 5865 5866 5867 5869 5871 5872 5874 5875 5876 5877 5878 5879 5880 5881 5882 5883 5884 5886 5887 5888 5889 5890 5891 5892 5892 5893 5893 5893 5894 5894 5894 5894 5894 5894
5858 5858 5858 5858 5859 5859 5861 5862 5864 5865 5867 5868 5870 5871 5873 5874 5876 5877 5878 5879 5880 5881 5882 5883 5884 5885 5887 5888 5889 5890 5891 5892 5893 5893 5894 5894 5894 5894 5895 5895 5895 5895 5895
5858 5858 5859 5859 5859 5860 5861 5862 5864 5865 5867 5869 5870 5872 5874 5875 5876 5877 5878 5880 5881 5882 5883 5884 5885 5886 5887 5889 5890 5891 5892 5892 5893 5894 5894 5895 5895 5895 5895 5896 5896 5896 5896
5859 5859 5859 5859 5859 5860 5861 5862 5864 5865 5867 5869 5871 5872 5874 5875 5877 5878 5879 5880 5882 5883 5884 5885 5886 5887 5888 5889 5890 5891 5892 5893 5894 5894 5895 5896 5896 5896 5896 5896 5896 5897 5897
5860 5860 5860 5860 5861 5861 5862 5863 5865 5866 5868 5869 5871 5873 5875 5876 5878 5879 5880 5881 5882 5883 5884 5886 5887 5888 5889 5890 5891 5892 5893 5893 5894 5895 5895 5896 5896 5897 5897 5897 5897 5897 5897
5861 5861 5861 5861 5862 5863 5863 5864 5866 5867 5868 5870 5872 5874 5876 5877 5878 5879 5881 5882 5883 5884 5885 5886 5887 5888 5889 5890 5891 5892 5893 5894 5894 5895 5896 5896 5897 5897 5897 5897 5898 5898 5898
5862 5862 5862 5863 5863 5864 5865 5866 5867 5868 5870 5871 5873 5875 5876 5878 5879 5880 5882 5883 5884 5885 5886 5887 5888 5889 5890 5891 5891 5892 5893 5893 5894 5895 5896 5896 5897 5897 5897 5897 5898 5898 5898
5864 5864 5864 5864 5865 5865 5866 5867 5868 5869 5871 5873 5874 5875 5877 5878 5879 5880 5882 5883 5884 5885 5886 5887 5888 5889 5890 5891 5892 5892 5893 5893 5894 5895 5895 5896 5896 5897 5897 5897 5897 5897 5898
5867 5867 5866 5866 5866 5867 5867 5868 5869 5870 5872 5874 5875 5876 5878 5879 5880 5881 5882 5883 5884 5885 5886 5887 5888 5889 5890 5891 5891 5892 5893 5894 5894 5895 5895 5895 5896 5896 5897 5897 5897 5897 5897
5870 5870 5869 5868 5868 5869 5869 5869 5871 5872 5874 5875 5876 5878 5879 5880 5881 5882 5883 5884 5884 5885 5886 5887 5888 5889 5890 5891 5891 5892 5893 5893 5894 5895 5895 5895 5896 5896 5896 5897 5897 5897 5897
5873 5872 5872 5871 5871 5871 5871 5872 5873 5874 5875 5877 5878 5879 5880 5881 5881 5882 5883 5884 5884 5885 5886 5887 5888 5889 5890 5891 5891 5892 5892 5893 5894 5894 5894 5895 5895 5896 5896 5896 5896 5896 5897
5876 5875 5874 5874 5874 5873 5874 5874 5875 5876 5877 5878 5879 5881 5881 5882 5882 5883 5883 5884 5884 5885 5886 5887 5888 5889 5889 5890 5890 5891 5892 5893 5893 5893 5894 5894 5895 5895 5895 5895 5896 5896 5896
5878 5877 5877 5876 5876 5876 5876 5877 5877 5878 5879 5880 5881 5882 5883 5883 5883 5884 5884 5884 5885 5886 5886 5887 5887 5888 5889 5889 5890 5891 5891 5892 5893 5893 5893 5894 5894 5894 5894 5894 5895 5895 5895
5881 5880 5879 5879 5878 5878 5878 5879 5880 5880 5881 5882 5882 5883 5883 5884 5884 5884 5885 5884 5885 5886 5886 5887 5887 5888 5888 5888 5889 5889 5890 5891 5892 5892 5892 5893 5893 5893 5893 5893 5893 5893 5894
5884 5883 5882 5882 5881 5881 5881 5881 5882 5882 5883 5883 5884 5884 5884 5885 5885 5885 5886 5885 5885 5885 5886 5886 5887 5887 5887 5888 5888 5888 5889 5890 5890 5891 5891 5891 5892 5892 5892 5892 5892 5892 5892
5886 5886 5885 5885 5884 5884 5884 5883 5884 5884 5884 5884 5885 5885 5885 5885 5886 5886 5886 5886 5886 5886 5886 5886 5886 5887 5887 5887 5887 5887 5888 5888 5889 5889 5890 5890 5890 5890 5890 5890 5890 5890 5891
5889 5888 5887 5887 5886 5886 5886 5885 5885 5885 5885 5886 5886 5886 5886 5886 5886 5886 5886 5886 5886 5886 5885 5885 5886 5886 5887 5887 5887 5887 5887 5887 5887 5888 5888 5888 5888 5889 5889 5889 5889 5889 5889
5891 5890 5889 5889 5888 5888 5887 5887 5887 5887 5886 5887 5886 5886 5886 5886 5886 5886 5886 5886 5886 5885 5885 5885 5885 5886 5886 5886 5886 5886 5886 5886 5886 5887 5887 5887 5887 5887 5887 5887 5887 5887 5887
5893 5892 5891 5890 5890 5889 5889 5888 5888 5888 5888 5888 5887 5887 5887 5887 5887 5886 5886 5886 5886 5886 5885 5885 5885 5885 5885 5885 5885 5885 5885 5885 5885 5886 5886 5885 5885 5885 5885 5885 5885 5885 5885
5895 5895 5894 5892 5892 5891 5890 5890 5889 5889 5889 5888 5888 5888 5887 5887 5887 5887 5886 5886 5886 5886 5885 5885 5885 5885 5885 5885 5885 5885 5884 5884 5884 5884 5884 5884 5884 5883 5883 5883 5883 5883 5883
5897 5896 5896 5895 5894 5893 5892 5891 5890 5890 5889 5889 5888 5888 5888 5888 5887 5887 5886 5886 5886 5886 5885 5885 5885 5884 5884 5884 5884 5883 5883 5883 5883 5883 5883 5882 5882 5882 5881 5881 5881 5881 5881
5899 5898 5897 5897 5895 5894 5893 5892 5892 5891 5890 5890 5889 5888 5888 5888 5887 5887 5886 5886 5886 5885 5885 5884 5884 5883 5883 5882 5882 5882 5882 5882 5881 5881 5881 5880 5880 5879 5879 5879 5878 5878 5878
5902 5901 5899 5898 5897 5896 5894 5893 5893 5892 5891 5890 5889 5889 5888 5888 5887 5886 5886 5885 5885 5885 5884 5884 5883 5883 5882 5881 5881 5881 5880 5880 5879 5879 5878 5878 5877 5877 5877 5876 5876 5876 5875
5903 5902 5901 5900 5899 5897 5896 5895 5893 5892 5891 5890 5890 5889 5888 5888 5887 5886 5885 5885 5884 5884 5884 5883 5882 5881 5881 5880 5879 5879 5878 5878 5877 5877 5876 5876 5875 5875 5874 5874 5873 5872 5872
5904 5903 5902 5901 5900 5899 5897 5896 5894 5893 5892 5891 5890 5889 5888 5887 5886 5885 5885 5884 5884 5883 5883 5882 5881 5881 5880 5879 5878 5877 5877 5876 5875 5875 5874 5874 5873 5872 5872 5871 5870 5869 5869
5905 5904 5903 5902 5901 5900 5898 5896 5895 5894 5892 5891 5890 5889 5888 5887 5886 5885 5884 5883 5883 5882 5882 5881 5880 5879 5878 5877 5876 5876 5875 5874 5873 5872 5872 5871 5870 5870 5869 5868 5867 5866 5866
Wind_Speed
7 6 6 5 6 7 7 8 8 8 8 8 7 7 7 8 8 7 7 6 6 7 7 8 8 8 8 7 7 7 6 5 5 4 5 5 5 4 4 3 3 2 3
7 6 6 5 6 7 7 8 8 8 8 8 8 8 8 8 8 7 7 7 6 7 7 7 7 8 7 7 7 7 6 5 4 4 4 5 5 5 4 3 3 3 3
8 7 6 6 6 7 7 8 8 8 9 9 9 9 8 8 8 8 8 8 7 7 7 7 7 7 7 7 7 6 6 5 5 4 4 4 4 4 4 3 3 2 3
8 7 7 7 7 8 9 9 9 9 9 9 9 9 8 8 9 8 7 7 7 7 7 6 6 6 6 6 5 5 5 5 4 4 3 3 3 3 3 3 3 3 2
9 8 9 9 9 9 9 9 9 10 9 9 9 9 8 8 7 7 7 8 8 7 7 6 6 6 5 5 5 5 4 4 4 4 3 3 3 3 3 3 2 2 2
10 9 10 10 10 9 10 10 10 10 10 9 8 8 8 7 7 7 7 8 8 7 7 6 5 6 5 4 4 4 4 4 4 3 3 2 2 2 2 2 2 2 2
11 11 11 10 10 10 11 10 10 10 10 10 9 9 8 7 7 7 6 6 7 6 5 5 4 4 4 4 3 4 4 4 3 3 3 2 2 2 2 2 2 1 1
13 12 12 13 13 12 11 10 10 10 10 9 9 9 8 7 7 6 6 5 5 5 4 3 3 4 3 3 3 4 3 4 4 2 2 2 2 3 2 1 1 1 1
14 14 13 14 13 12 11 11 10 10 10 9 9 8 8 7 6 6 5 5 4 4 3 3 3 3 3 3 2 3 3 4 4 3 2 3 3 3 2 2 1 1 1
15 15 15 14 14 12 12 12 11 10 10 9 9 8 7 7 6 6 5 4 4 3 4 3 3 3 3 3 3 3 4 4 3 2 3 3 3 3 3 2 2 2 1
15 15 14 14 14 13 13 12 12 10 10 9 9 8 8 7 6 5 4 4 4 4 4 4 4 3 4 5 5 5 5 4 3 3 4 3 3 3 3 3 3 2 2
15 15 14 14 14 13 13 12 11 11 10 9 9 8 7 6 5 4 3 4 4 4 3 3 3 4 4 5 5 6 5 4 4 4 4 4 4 4 4 3 3 4 4
15 15 14 14 13 13 13 12 11 11 10 9 9 7 6 5 4 3 3 3 3 3 3 3 3 3 4 5 6 7 6 6 6 5 5 5 5 5 5 5 5 5 6
14 14 13 13 13 13 12 11 10 10 9 8 7 6 5 5 4 2 2 3 2 2 2 3 3 3 4 5 6 6 6 6 6 5 5 5 6 6 6 6 6 6 6
14 14 13 13 12 12 11 11 10 9 8 7 6 5 5 5 4 3 3 3 2 1 2 2 2 3 4 4 4 5 6 6 6 6 6 7 7 7 7 7 7 7 7
14 13 13 12 12 12 11 10 9 9 8 7 6 5 5 4 4 4 3 2 1 0 2 3 2 3 3 2 3 4 6 7 6 6 6 7 7 8 8 8 8 8 8
14 13 13 12 11 10 10 9 9 8 7 7 6 6 5 5 4 3 2 2 1 1 2 3 2 3 3 3 4 4 5 7 6 6 7 7 7 7 7 8 8 8 8
13 13 12 12 11 10 9 8 8 7 7 6 6 6 5 4 3 2 1 1 1 1 2 1 2 3 3 4 4 5 5 5 6 7 7 7 7 8 8 9 8 8 9
12 12 12 12 12 11 10 8 7 6 6 6 5 5 4 4 3 2 2 2 2 2 2 2 3 3 3 4 4 4 4 5 5 6 7 7 7 8 8 8 8 9 9
11 11 11 11 11 11 10 9 7 6 6 6 6 5 4 3 3 3 2 2 2 2 2 2 3 3 4 4 4 5 5 6 6 7 7 8 7 8 8 9 10 10 10
11 11 11 11 11 11 10 9 8 7 6 6 6 5 4 3 3 2 2 3 2 2 2 3 3 4 4 4 5 5 5 6 6 7 7 7 8 9 9 10 10 10 11
11 11 11 11 11 10 10 10 9 7 6 6 5 5 4 4 4 3 3 3 3 3 3 3 4 4 4 5 5 6 6 7 7 8 8 9 10 10 10 10 11 10 11
10 10 10 10 10 10 9 9 8 7 6 5 5 5 4 4 4 3 3 3 3 3 4 4 4 4 5 6 6 7 7 8 8 9 9 10 10 10 11 11 11 12 12
8 9 9 10 10 9 9 8 8 7 6 5 5 5 5 5 4 4 4 4 4 4 4 5 5 6 6 6 6 6 8 8 9 9 9 9 10 10 11 11 12 12 13
7 7 8 8 9 10 10 9 9 8 7 6 5 5 5 5 5 5 5 5 5 5 5 5 6 6 7 6 6 7 7 8 8 9 9 10 10 11 11 11 12 13 13
6 6 6 7 8 9 9 10 9 9 9 8 6 5 5 5 6 6 6 6 6 6 6 6 6 6 7 7 7 8 9 9 9 10 10 10 11 11 12 12 12 13 14
Wind_Direction
76 85 100 115 118 132 143 149 142 147 146 143 140 136 138 140 140 140 140 141 138 145 149 149 149 148 147 143 144 149 147 139 132 121 95 97 97 88 96 102 106 119 100
79 85 90 103 119 126 133 134 139 146 148 146 143 140 140 141 141 144 144 142 138 137 138 140 147 150 146 143 144 150 150 138 127 120 104 97 90 94 101 104 100 101 91
77 85 90 103 117 122 124 131 134 143 148 146 141 140 143 146 148 147 145 145 143 138 139 141 143 148 151 144 145 150 150 143 130 128 118 108 101 102 105 115 119 98 89
77 83 86 103 112 117 121 126 130 136 145 149 142 139 141 143 145 146 145 145 147 150 152 145 143 152 152 147 148 151 150 148 142 139 139 131 124 118 113 116 126 115 104
75 79 83 98 107 111 118 122 124 126 137 144 144 141 139 141 146 146 144 148 147 153 158 153 152 161 152 143 150 159 158 167 167 164 164 159 150 136 128 124 125 109 109
75 78 81 91 101 105 110 116 123 125 130 134 139 141 143 145 146 143 145 147 146 153 156 159 164 165 158 145 150 166 169 172 178 176 179 179 167 154 143 127 115 108 98
82 84 85 90 95 103 107 115 119 125 130 128 130 132 137 142 146 152 153 153 155 162 175 180 177 170 175 173 173 182 180 184 191 192 202 199 194 193 183 148 133 121 90
81 82 87 90 96 101 101 107 116 126 127 124 126 131 135 138 146 158 165 160 164 170 172 175 189 195 189 184 187 200 195 205 205 214 214 217 219 220 208 181 143 130 147
74 78 84 89 94 97 102 109 118 127 126 128 129 134 134 137 141 146 156 167 170 180 173 177 178 202 200 201 215 205 196 205 216 216 220 231 236 225 214 219 219 201 186
74 79 82 85 90 94 100 109 119 120 123 127 129 130 135 137 135 140 154 164 160 161 177 190 187 189 200 206 214 220 214 208 211 227 225 223 228 228 228 235 243 241 229
72 77 79 83 87 92 100 107 112 113 118 119 121 124 124 126 129 133 140 152 162 169 180 191 195 203 213 220 227 228 227 222 222 236 225 220 222 233 247 255 254 257 261
71 74 79 84 87 92 100 104 109 110 114 116 120 124 121 117 116 122 131 142 156 165 180 184 193 214 229 232 229 232 237 240 233 236 236 229 233 248 257 264 253 255 260
73 76 79 84 87 90 97 103 107 109 112 115 119 117 113 109 111 105 110 133 148 166 179 183 205 225 231 226 230 238 246 245 237 242 248 247 247 254 256 256 253 259 262
73 76 80 81 83 87 94 101 106 108 110 112 114 115 106 97 102 87 84 120 146 203 228 214 230 234 231 236 230 235 244 241 240 242 249 248 251 257 260 260 261 264 268
73 75 77 79 82 85 91 97 100 101 105 108 104 100 99 96 100 93 93 99 107 198 242 260 252 245 253 252 241 242 240 236 241 246 255 257 254 256 260 261 265 266 268
70 73 74 77 79 84 87 90 94 95 95 95 95 94 95 95 93 90 91 80 92 316 279 259 262 255 248 266 257 254 245 244 245 254 260 262 258 258 260 262 269 269 269
67 68 69 69 73 77 80 86 87 87 84 84 86 91 89 82 79 75 73 71 48 308 262 248 249 250 259 282 285 268 253 246 245 257 262 264 262 261 260 262 266 271 274
66 66 65 63 67 73 75 82 84 83 84 80 81 81 83 84 79 68 56 31 22 319 257 282 268 276 279 278 273 267 257 255 258 265 265 262 261 261 264 268 270 272 272
65 63 63 61 62 65 69 74 80 81 78 73 73 69 65 60 51 32 17 3 357 333 304 312 322 310 288 281 271 266 267 274 279 279 278 275 267 266 267 269 273 274 275
61 62 63 62 62 61 63 66 70 70 65 61 60 60 52 43 31 18 11 1 350 337 323 317 304 297 284 283 281 276 284 286 290 290 287 282 278 275 276 275 274 273 275
56 58 63 59 58 58 57 59 61 62 59 56 58 53 43 33 25 21 11 353 340 336 329 319 307 297 291 290 289 284 285 287 285 289 292 290 287 284 280 279 279 276 274
53 54 57 57 54 55 56 54 54 52 47 45 43 38 28 21 18 13 6 349 339 338 329 318 314 308 299 296 291 287 290 290 287 287 287 289 287 286 285 285 281 283 280
51 50 49 50 48 49 50 46 45 44 39 34 28 22 19 10 2 355 348 339 334 335 334 328 318 315 309 301 293 288 288 289 288 289 290 291 289 285 283 285 284 282 285
49 49 45 41 39 39 39 37 32 32 26 23 15 12 9 0 353 344 334 329 319 317 322 323 322 319 317 310 301 293 290 289 288 288 289 288 289 289 287 286 284 280 281
41 40 40 36 31 27 23 21 20 20 17 13 5 1 359 355 352 345 336 332 326 318 317 321 320 316 314 309 302 301 300 298 297 293 291 288 287 288 291 293 288 285 283
29 27 26 24 24 19 15 14 12 11 10 6 2 354 346 344 344 343 335 331 325 320 314 317 314 311 311 309 305 302 302 301 301 297 291 289 287 288 290 293 293 291 288